This demonstration page uses our WeatherBlox Daily Observations layout. Learn more.

Left ArrowRight Arrow

34.16533, -84.80231

Hourly Observations for June 8, 2019

Temp ( °F °C ) Dew Point ( °F °C ) Humidity (%) Winds ( mph kmh ) Pressure ( in mb ) Visibility ( mi km ) Precip ( " mm )
12:53 am 00:53 Mostly Cloudy 70 21.1 68 20 93 93 Calm 29.75 1008 10 16 0.00 0.00
1:53 am 01:53 Partly Cloudy 70 21.1 68 20 93 93 SSE 5 7 29.74 1007 10 16 0.00 0.00
2:53 am 02:53 Mostly Cloudy 70 21.1 69 20.6 97 97 SE 3 6 29.73 1007 10 16 0.00 0.00
3:49 am 03:49 Cloudy 72 22 68 20 88 88 SSE 6 9 29.76 1008 10 16 0.00 0.00
3:53 am 03:53 Cloudy 71 21.7 68 20 90 90 SE 5 7 29.74 1007 10 16 0.00 0.00
4:53 am 04:53 Cloudy 71 21.7 69 20.6 94 94 SE 3 6 29.75 1007 10 16 0.00 0.00
5:49 am 05:49 Cloudy with Light Rain 72 22 70 21 94 94 ESE 5 7 29.77 1008 10 16 0.00 0.03
5:53 am 05:53 Cloudy with Light Rain 71 21.7 69 20.6 94 94 SE 3 6 29.75 1007 9 14 0.00 0.03
6:51 am 06:51 Cloudy with Nearby Thunderstorms 72 22 70 21 94 94 ESE 3 6 29.77 1008 7 11 0.01 0.25
6:53 am 06:53 Cloudy with Nearby Thunderstorms 71 21.7 69 20.6 94 94 SE 5 7 29.76 1008 6 10 0.02 0.51
7:11 am 07:11 Cloudy with Nearby Thunderstorms 70 21.1 69 20.6 97 97 VRB 3 6 29.79 1009 2 3 0.15 3.81
7:15 am 07:15 Cloudy with Nearby Thunderstorms 70 21.1 69 20.6 97 97 SE 8 13 29.78 1008 2 3 0.19 4.83
7:20 am 07:20 Cloudy with Strong Thunderstorms 70 21.1 69 20.6 97 97 SE 6 9 29.78 1008 3 5 0.20 5.08
7:37 am 07:37 Mostly Cloudy with Nearby Thunderstorms 70 21.1 69 20.6 97 97 E 5 7 29.77 1008 6 10 0.23 5.84
7:48 am 07:48 Mostly Cloudy with Light Rain 70 21 70 21 100 100 ESE 3 6 29.77 1008 6 10 0.25 6.35
7:53 am 07:53 Mostly Cloudy with Light Rain 70 21.1 69 20.6 97 97 SE 5 7 29.76 1008 6 10 0.26 6.60
8:45 am 08:45 Cloudy with Light Rain 71 21.7 70 21.1 96 96 Calm 29.79 1009 8 13 0.06 1.52
8:53 am 08:53 Cloudy with Light Rain 71 21.7 69 20.6 94 94 VRB 6 9 29.78 1008 5 8 0.08 2.03
8:57 am 08:57 Cloudy with Heavy Rain 71 21.7 69 20.6 94 94 VRB 7 11 29.79 1009 2 3 0.05 1.27
9:05 am 09:05 Cloudy with Rain 70 21.1 70 21.1 100 100 ESE 3 6 29.80 1009 2 2 0.09 2.29
9:10 am 09:10 Cloudy with Rain 70 21.1 70 21.1 100 100 VRB 3 6 29.80 1009 3 5 0.10 2.54
9:30 am 09:30 Cloudy with Rain 70 21.1 69 20.6 97 97 SSE 5 7 29.80 1009 5 8 0.14 3.56
9:53 am 09:53 Mostly Cloudy with Rain 70 21.1 68 20 93 93 SSE 6 9 29.79 1009 6 10 0.19 4.83
10:53 am 10:53 Cloudy 69 20.6 68 20 96 96 E 7 11 29.78 1008 10 16 0.09 2.29
11:05 am 11:05 Cloudy 69 20.6 68 20 96 96 VRB 6 9 29.80 1009 10 16 0.00 0.00
11:53 am 11:53 Cloudy 71 21.7 69 20.6 94 94 SE 6 9 29.80 1009 10 16 0.00 0.00
12:00 pm 12:00 Cloudy with Light Rain 71 21.7 69 20.6 94 94 VRB 5 7 29.82 1010 2 3 0.05 1.27
12:13 pm 12:13 Cloudy with Light Rain 70 21.1 69 20.6 97 97 E 5 7 29.81 1009 3 5 0.11 2.79
12:53 pm 12:53 Cloudy with Rain 70 21.1 69 20.6 97 97 VRB 6 9 29.79 1009 5 8 0.21 5.33
1:20 pm 13:20 Cloudy with Light Rain 70 21.1 69 20.6 97 97 VRB 7 11 29.80 1009 5 8 0.07 1.78
1:43 pm 13:43 Cloudy with Light Rain 70 21.1 68 20 93 93 VRB 7 11 29.79 1009 10 16 0.09 2.29
1:50 pm 13:50 Cloudy with Light Rain 70 21 68 20 94 94 ESE 7 11 29.79 1009 10 16 0.09 2.29
1:53 pm 13:53 Cloudy with Light Rain 70 21.1 68 20 93 93 VRB 7 11 29.78 1009 10 16 0.09 2.29
2:53 pm 14:53 Mostly Cloudy 71 21.7 69 20.6 94 94 ENE 5 7 29.76 1008 10 16 0.00 0.03
3:53 pm 15:53 Cloudy 73 22.8 70 21.1 90 90 ESE 9 15 29.74 1007 10 16 0.00 0.00
4:16 pm 16:16 Mostly Cloudy 74 23.3 70 21.1 88 88 ESE 9 15 29.75 1008 10 16 0.00 0.00
4:53 pm 16:53 Cloudy 75 23.9 70 21.1 84 84 E 8 13 29.75 1007 10 16 0.00 0.00
5:29 pm 17:29 Mostly Cloudy 75 23.9 69 20.6 82 82 SE 7 11 29.76 1008 10 16 0.00 0.00
5:53 pm 17:53 Mostly Cloudy 75 23.9 69 20.6 82 82 ESE 7 11 29.77 1008 10 16 0.00 0.00
7:29 pm 19:29 Cloudy 73 22.8 69 20.6 87 87 ESE 7 11 29.80 1009 10 16 0.00 0.00
7:53 pm 19:53 Cloudy 73 22.8 69 20.6 87 87 ESE 5 7 29.78 1008 10 16 0.00 0.00
8:40 pm 20:40 Cloudy 72 22.2 69 20.6 91 91 E 6 9 29.79 1009 10 16 0.00 0.00
8:53 pm 20:53 Cloudy 72 22.2 69 20.6 91 91 VRB 3 6 29.78 1009 10 16 0.00 0.00
9:13 pm 21:13 Cloudy 72 22.2 69 20.6 91 91 VRB 5 7 29.79 1009 10 16 0.00 0.00
9:38 pm 21:38 Cloudy 72 22.2 69 20.6 91 91 E 5 7 29.81 1009 10 16 0.00 0.00
9:53 pm 21:53 Cloudy 72 22.2 69 20.6 91 91 E 3 6 29.79 1009 10 16 0.00 0.00
10:53 pm 22:53 Cloudy 71 21.7 68 20 90 90 E 5 7 29.82 1010 10 16 0.00 0.00
11:11 pm 23:11 Cloudy 71 21.7 68 20 90 90 VRB 3 6 29.83 1010 10 16 0.00 0.00
11:53 pm 23:53 Cloudy 71 21.7 68 20 90 90 E 5 7 29.82 1010 9 14 0.00 0.00

Powered by AerisWeather